DEAR-1

导读

DEAR-1(迪迩一号)卫星是中国发射的商业卫星,于北京时间2023年12月17日15时,在酒泉卫星发射中心,由双曲线一号(SQX-1)商业运载火箭发射升空,顺利进入预定轨道。 此次任务是双曲线一号商业运载火箭的第6次飞行任务,迪迩一号卫星主要承担商业航天相关任务,本次发射任务的圆满成功,进一步验证了双曲线一号运载火箭的可靠性,也推动中国商业航天发展。

基本信息
目录编号:
58586
目录名称:
DEAR-1
国际标识:
2023-199A
轨道中心:
EARTH
卫星名称:
DEAR-1
卫星全名:
DEAR-1
卫星状态:
已陨落 最后检测时间 2025-10-01
发射日期:
2023-12-17 UTC
国别 :
中国 (CN)
星等 :
--
轨道信息
数据来源 国际轨道数据
星历时间: 2025-09-30T17:31:55+0800
轨道信息已过期286天
半长轴: 6575.548km
偏心率: 0.0008829
轨道倾角: 97.433°
近地点辐角 276.062°
升交点赤经 54.161°
平近点角 83.967°
近地点: 191.607km
远地点: 203.219km
周期: 88.442分钟
每日圈数: 16.281894
详细信息
使用方式:
暂无